[vc_row][vc_column width=”2/3″]

Nesenie raksti

Ziņas

[/vc_column][vc_column width=”1/3″ el_class=”sticky-column”]

Par Gliding.lv

[vc_column_text]Gliding.lv ir interneta vietne par planieriem un planierismu. Šeit būs atrodama informācija par iespējām pamēģināt, iesaistīties un organizēt planierisma aktivitātes. Izmanto Gliding.lv forumu, ja Tev ir kāda tēma diskusijai vai jautājums. Gliding.lv merķis ir informēt un apvienot planierisma interesentus, nodrošinot un apmainoties ar aktuālāko un arī bijušo. Lidojam![/vc_column_text][vc_column_text]
[/vc_column_text]

METAR

EVRA 101020Z 33007KT 280V020 CAVOK 22/13 Q1027 NOSIG

EVLA 101020Z AUTO 25007KT 210V300 CAVOK 21/13 Q1028

EVVA 101020Z AUTO 27007KT CAVOK 21/14 Q1028

Nesenie raksti

[/vc_column][/vc_row]

Pāriet uz rīkjoslu